Location: Bittelbronn
(48.4454°N, 8.5870°E)
Time: 07:40:40
(UTC+00:00)

Cosmos 724 - Pass Details

Date: 13 August 2024
Orbit: 862 x 932 km, 65.6° (Epoch: 07 September)

Event Time Altitude Azimuth Distance (km) Brightness Sun altitude
Rises 03:20:58 0° 190° (S) 3,443 7.0 -9.0°
Reaches altitude 10° 03:23:35 10° 183° (S) 2,503 6.3 -8.6°
Maximum altitude 03:28:54 39° 116° (ESE) 1,267 5.5 -7.9°
Drops below altitude 10° 03:34:14 10° 49° (NE) 2,510 8.4 -7.1°
Sets 03:36:50 0° 42° (NE) 3,453 9.1 -6.8°
